CZ-3B DEB, 41119

Orbit data source: Space-Track

CZ-3B DEB, 41119 is space debris in HEO originally from a launch on Mon, 19 Dec 2011 UTC launched from the Xichang Space Center, China (XSC). Debris objects in space refer to the collection of defunct objects orbiting the Earth. Examples of debris include non-operational satellites, rocket bodies, and fragments generated from explosions, collisions, or faulty payload assembly.

Loading next visibility...
CZ-3B DEB details
Identifier
41119, 2011-077AJ
Orbit
HEO
Last TLE update2 days ago
Origin
Flag of CNCASC (CN / PRC)
ManufacturerCALT
MissionSpacecraft
Bus & MotorUnknown
MassUnknown
Launch date (UTC)
2011-12-19 (13 years ago)
Launch vehicleUnknown
Launch site
Xichang Space Center, China (XSC)
Object type
Payload
Rocket body
Debris
Shape & HBRUnknown
Radar Cross SectionMedium (>0.1 m² and <1 m²)

Expand to show TLE details & history

TLE from 2 days ago
0 CZ-3B DEB
1 41119U 11077AJ  24359.55188689 -.00000026  00000-0  00000+0 0  9993
2 41119  21.0982 104.7195 7237757  67.1597 350.6549  1.69774138 61825
Epoch: 2024-12-24T13:14Z
Definitive object data (Epoch: 2024-12-24T13:14:43.027Z)
Latitude0.00008°
Longitude172.35038°
Altitude4,695.432 km
Speed7.652 km/s
True Right ascension06h 58m 21s
True Declination0° 00' 00"
Sunlit
Object was in full shadow at TLE epoch
Visualization TLE readout
Latitude-12.86534°
Longitude28.24487°
Altitude31,691.946 km
Speed2.741 km/s
Apparent Right ascension21h 28m 30s
Apparent Declination-16° 39' 59"
Sunlit
Object is in daylight
Visualization observer readout
Local Sidereal Time10:18:47
Azimuth28.749° NE
Elevation-64.314°
Doppler factor1
Orbital elements
Apogee altitude44,792.608 km
Perigee altitude1,821.656 km
Semi-major axis29,685.269 km
Eccentricity0.7237757
Inclination21.0982°
RAAN104.7195°
Arg. of periapsis67.1597°
True anomaly292.01252°
Mean anomaly350.6549°
Eccentric anomaly329.7867°
Mean motion0.42436 °/min
BSTARUnknown
Orbital period848.34 mins
Loading maneuver chart data...
Loading historical data...
Loading historical data...
Loading historical data...
Loading historical data...
Loading historical data...
Loading historical data...
Loading historical data...

CZ-3B DEB Visibility forecast

Observer location: undefined°, undefined

Span
Click to sort rows by Start time (UTC) header in descending order
Start Az.
Max El. time (UTC)
Max El. Az.
Max El.
End time (UTC)
End Az.
140 mins2024-12-26 23:16:31.132Z241.098° WSW2024-12-27 00:06:31.132Z230.732° WSW13.888°2024-12-27 01:36:31.132Z231.149° WSW
|